Location: Bonningues
(50.7927°N, 2.0150°E)
Time: 06:29:13
(UTC+00:00)

NOSS 3-2 (A) - Pass Details

Date: 08 August 2020
Orbit: 795 x 1413 km, 63.4° (Epoch: 19 September)

Event Time Altitude Azimuth Distance (km) Brightness Sun altitude
Rises 23:15:29 0° 247° (WSW) 3,435 6.3 -22.8°
Reaches altitude 10° 23:17:55 10° 254° (WSW) 2,562 5.6 -22.9°
Maximum altitude 23:23:40 48° 328° (NNW) 1,260 4.4 -23.0°
Drops below altitude 10° 23:30:22 10° 43° (NE) 2,966 6.5 -23.2°
Sets 23:33:23 0° 49° (NE) 4,028 7.2 -23.2°
